EST,Max TemperatureF,Mean TemperatureF,Min TemperatureF,Max Dew PointF,MeanDew PointF,Min DewpointF,Max Humidity, Mean Humidity, Min Humidity, Max Sea Level PressureIn, Mean Sea Level PressureIn, Min Sea Level PressureIn, Max VisibilityMiles, Mean VisibilityMiles, Min VisibilityMiles, Max Wind SpeedMPH, Mean Wind SpeedMPH, Max Gust SpeedMPH,PrecipitationIn, CloudCover, Events, WindDirDegrees
2012-12-1,53,43,33,46,38,33,93,83,66,30.29,30.20,30.06,15,6,3,21,9,28,0.00,8,,107
2012-12-2,55,52,49,55,51,45,100,92,67,30.11,30.00,29.94,12,8,4,23,14,32,0.12,8,Fog-Rain,223
2012-12-3,59,50,42,57,51,43,100,98,91,30.16,30.08,29.95,15,3,0,20,7,23,0.01,7,Fog-Rain,141
2012-12-4,57,50,42,54,47,34,94,83,70,30.09,29.99,29.93,15,13,4,21,14,28,0.24,5,Rain,244
2012-12-5,37,32,26,34,24,19,86,63,36,30.41,30.33,30.12,15,15,15,15,11,20,0.00,2,,356
2012-12-6,39,32,25,32,27,21,93,80,62,30.40,30.20,30.01,15,15,15,10,5,,0.00,6,,150
2012-12-7,42,38,33,41,38,32,100,92,81,30.00,29.96,29.92,15,6,1,7,3,,0.04,8,Rain,200
2012-12-8,41,38,35,41,37,30,100,94,74,30.19,29.96,29.84,15,7,1,15,7,17,0.12,8,Rain,20
2012-12-9,42,38,33,43,35,28,100,89,70,30.20,30.02,29.68,15,8,0,21,9,24,0.12,8,Fog-Rain-Snow,66
2012-12-10,42,38,33,41,34,23,100,84,60,29.86,29.70,29.62,15,8,0,15,6,21,0.02,8,Fog-Rain,288
2012-12-11,35,32,28,25,21,19,75,64,49,30.18,30.03,29.88,15,15,15,16,9,20,0.00,5,Snow,269
2012-12-12,42,34,26,30,25,23,87,73,40,30.40,30.32,30.19,15,15,10,15,10,,0.00,1,,218
2012-12-13,41,34,28,30,28,26,93,76,46,30.41,30.34,30.20,15,15,12,15,8,,0.00,2,,198
2012-12-14,46,38,31,34,29,26,87,73,47,30.27,30.23,30.20,15,14,12,10,7,,0.00,5,,210
2012-12-15,44,37,30,41,33,28,100,85,61,30.21,30.04,29.75,15,8,0,18,6,,0.04,7,Fog-Rain,104
2012-12-16,54,48,42,50,46,41,100,88,72,29.73,29.66,29.61,15,11,2,18,12,24,0.20,8,Rain,229
2012-12-17,46,42,39,41,36,34,87,77,64,29.75,29.69,29.62,15,14,12,17,9,17,0.00,8,,250
2012-12-18,42,38,35,34,31,28,87,75,50,29.78,29.72,29.63,15,12,7,17,8,21,0.02,6,Rain,297
2012-12-19,39,38,35,36,34,31,93,84,69,30.15,29.99,29.76,7,6,4,9,4,,0.00,8,Rain-Snow,294
2012-12-20,46,41,36,45,38,32,100,87,76,30.13,29.63,29.21,15,9,1,33,15,39,0.35,8,Rain,138
2012-12-21,33,32,30,32,28,23,93,82,59,29.82,29.44,29.21,15,6,0,30,16,38,0.04,8,Snow,293
2012-12-22,33,32,30,25,21,19,80,65,51,30.09,30.01,29.85,15,15,15,25,19,36,0.00,6,,288
2012-12-23,37,30,23,25,21,19,86,72,51,30.06,29.98,29.92,15,14,10,12,8,,0.00,3,,287
2012-12-24,33,28,23,29,24,19,94,81,65,30.04,29.95,29.86,15,9,1,16,8,18,0.04,7,Snow,53
2012-12-25,31,27,23,27,23,21,93,79,57,30.32,30.21,29.99,15,15,12,14,9,,0.00,6,Snow,359
2012-12-26,30,27,24,28,24,21,100,82,66,30.30,30.01,29.85,15,6,0,31,20,38,0.43,8,Rain-Snow,40
2012-12-27,32,26,17,30,24,18,100,82,62,30.18,30.04,29.87,15,12,2,17,9,23,0.04,5,Rain-Snow,345
2012-12-28,29,22,14,25,18,12,93,85,69,30.21,30.13,30.00,15,12,2,10,2,,35.43,6,Snow,181
2012-12-29,30,26,23,27,25,19,95,87,74,30.04,29.90,29.82,15,4,0,13,9,17,0.16,8,Snow,10
2012-12-30,29,25,21,25,20,16,93,80,69,30.32,30.24,30.06,15,10,4,18,11,21,0.02,6,Snow,249
2012-12-31,34,27,20,28,22,16,87,74,57,30.24,30.05,29.95,15,10,7,21,14,22,0.00,8,Snow,237